Regional Weather Roundup
Issued by NWS Columbia, SC

Home | Current Version | Previous Version | Text Only | Print | Product List | Glossary On
Versions: 1 2 3 4 5 6 7 8 9 10 11 12 13 14 15 16 17 18 19 20 21 22 23 24 25 26 27 28 29 30 31 32 33 34 35 36 37 38 39 40 41 42 43 44 45 46 47 48 49 50
000
ASUS42 KCAE 241710
RWRCAE
REGIONAL WEATHER ROUNDUP
NATIONAL WEATHER SERVICE COLUMBIA SC
100 PM EDT SAT AUG 24 2019

NOTE: "FAIR" INDICATES FEW OR NO CLOUDS BELOW 12,000 FEET WITH NO
SIGNIFICANT WEATHER AND/OR OBSTRUCTIONS TO VISIBILITY.

NOT ALL STATIONS ARE QUALITY CONTROLLED BY THE NATIONAL
WEATHER SERVICE. USE DATA WITH CAUTION...ESPECIALLY
DEWPOINT OBSERVATIONS.

SCZ001>056-GAZ040-063>065-077-241800-
...UPSTATE SOUTH CAROLINA...

CITY           SKY/WX    TMP DP  RH WIND       PRES   REMARKS
ANDERSON       PTSUNNY   83  70  64 NE13      30.08F
LIBERTY        CLOUDY    78  70  77 E8G18     30.10F
SPARTANBURG    CLOUDY    68  61  77 NE12G20   30.14S
CLEMSON        CLOUDY    79  71  76 E8        30.10F
GREENVILLE     CLOUDY    73  64  73 NE17      30.13F
GREENWOOD      CLOUDY    78  73  84 NE9       30.09F
GREER          CLOUDY    69  62  78 NE13G22   30.14F
ROCK HILL      CLOUDY    67  63  87 NE12      30.14S FOG
CHESTER        LGT RAIN  68  68 100 N12G17    30.13F
LAURENS        FAIR      68  68 100 NE9G17    30.11S FOG


...CENTRAL SOUTH CAROLINA...

CITY           SKY/WX    TMP DP  RH WIND       PRES   REMARKS
COLUMBIA APT   CLOUDY    83  71  67 S5        30.05F
COLUMBIA OWENS PTSUNNY   82  70  66 CALM      30.06F
MCENTIRE ANGB  FAIR      85  70  61 CALM      30.06F
ORANGEBURG     LGT RAIN  76  70  82 CALM      30.07F
SUMTER SHAW    CLOUDY    82  71  68 E3        30.06F
AIKEN          CLOUDY    77  75  94 SE3       30.11F
BARNWELL       DRIZZLE   75  73  94 NE3       30.07F
MANNING        FAIR      81  72  74 CALM      30.05F
CAMDEN         CLOUDY    79  73  83 NE6       30.08F
LANCASTER      CLOUDY    68  68 100 N6        30.12S FOG
WINNSBORO      CLOUDY    73  72  94 NE5       30.08F


...EASTERN AND COASTAL SOUTH CAROLINA...

CITY           SKY/WX    TMP DP  RH WIND       PRES   REMARKS
MYRTLE BEACH   PTSUNNY   82  75  79 E7        30.06S
N MYRTLE BCH   FAIR      85  73  67 E9        30.05S
CONWAY         FAIR      82  73  74 CALM      30.05F HAZE
MARION         CLOUDY    79  72  78 NE7       30.06F
HARTSVILLE     CLOUDY    72  72 100 NE6       30.08F
FLORENCE       CLOUDY    79  71  76 E6        30.07F
CHARLESTON APT PTSUNNY   85  70  60 N10       30.04F
MOUNT PLEASANT FAIR      86  75  70 CALM      30.03F HX  95
WALTERBORO     FAIR      81  72  74 N7        30.06F
BEAUFORT       FAIR      90  74  59 N12       30.03F HX  99
HILTON HEAD    MOSUNNY   86  75  70 NE9       30.04S HX  95


...EASTERN GEORGIA...

CITY           SKY/WX    TMP DP  RH WIND       PRES   REMARKS
AUGUSTA BUSH F CLOUDY    81  73  76 VRB3      30.05F
AUGUSTA DANIEL CLOUDY    81  70  69 E6        30.07F
THOMSON        CLOUDY    80  75  83 SE7       30.06F
WASHINGTON     CLOUDY    79  72  78 E3        30.08S
CLAXTON        FAIR      91  72  53 E5        30.02F HX  99
SYLVANIA       FAIR      86  75  68 E6        30.05F HX  95
STATESBORO     FAIR      86  73  64 N7        30.03F
SAVANNAH       PTSUNNY   92  75  57 E8        30.01F HX 103


...SOUTHERN NORTH CAROLINA...

CITY           SKY/WX    TMP DP  RH WIND       PRES   REMARKS
CHARLOTTE      CLOUDY    67  63  87 N9        30.15F
MONROE         CLOUDY    67  64  90 N10       30.12F
WADESBORO      RAIN      69  65  88 MISG      30.11F
ROCKINGHAM     CLOUDY    71  67  88 CALM      30.11S
RUTHERFORDTON  CLOUDY    64  63  94 N8        30.18S
ASHEVILLE      CLOUDY    72  64  76 S8        30.16F

$$



USA.gov is the U.S. government's official web portal to all federal, state and local government web resources and services.